Погода в Атакуме

Турция     41°19′57″N   36°08′57″E
В апреле 2022 года жителям России запретили посещать сайт meteo.paraplan.net по решению Генеральной прокуратуры. Аудитория сайта уменьшилась в 10 раз. Владельцы сайта не видят смысла в поддержке погодного сервера в таких условиях. Сайт будет закрыт в октябре.
темп.,
°C
ветер,
м/с
пор.,
м/с
влажн.,
%
обл.,
%
осадки,
мм/ч
давл.,
гПа
погр.,
м
29 сентября, чт
чт2900:00+16юз22708 0.4 101217
03:00+16юз32610 0.5 101230
06:00+16юз44640 0.0 101150
09:00+22юз12501 0.0 1011261
12:00+26всв334021 0.0 10111370
15:00+23ссв335113 0.7 1012380
18:00+20в11615 0.0 101311
21:00+18зюз11645 0.0 101411
30 сентября, пт
пт3000:00+17юз22653 0.0 101415
03:00+18юз33640 0.0 101425
06:00+18юз44560 0.0 101439
09:00+25зюз25380 0.0 1015354
12:00+28с23310 0.0 10151634
15:00+26ссв45410 0.0 1016761
18:00+21с22620 0.0 101834
21:00+18юз22680 0.0 102020
1 октября, сб
сб100:00+18юз32630 0.0 101919
03:00+18юз32590 0.0 102018
06:00+17юз32580 0.0 102119
09:00+23сз11420 0.0 1021295
12:00+26св32360 0.0 1020979
15:00+25св33410 0.0 1020698
18:00+20св11640 0.0 102015
21:00+18юз22670 0.0 101914
2 октября, вс
вс200:00+17юз2262100 0.0 101815
03:00+17юз33585 0.0 101624
06:00+17юз33490 0.0 101434
09:00+24ююз34315 0.0 1012244
12:00+29ююв14255 0.0 10081040
15:00+30в1424100 0.0 10041263
18:00+21вюв115381 0.0 100312
21:00+22юз333616 0.0 100121
3 октября, пн
пн300:00+19сз6117228 0.0 1003360
03:00+18сз2587100 0.0 1004377
06:00+17ююв1291100 0.6 1009218
09:00+16ссз2592100 2.1 1011353
12:00+15ссз3787100 2.1 1013681
15:00+14с4991100 5.4 1014851
18:00+13с2692100 7.8 1016559
21:00+13ссз2392100 9.6 1017252